This is the latest recevied weather packets stored in our database for station/object KC0QBU-13. If no packets are shown the sender has not sent any weather packets the latest 10 day(s).
| Time | Temp. | Humidity | Pressure | Rain* | Wind** | Luminosity | Snow |
|---|---|---|---|---|---|---|---|
| 1777257903 | 17.22° C | 92% | 1008.4 hPa | 1.52 mm | - | - | - |
| 1777254904 | 17.22° C | 89% | 1007.4 hPa | 0 mm | - | - | - |
| 1777254604 | 17.22° C | 89% | 1007.2 hPa | 0 mm | - | - | - |
| 1777253104 | 17.78° C | 90% | 1007.2 hPa | 0 mm | - | - | - |
| 1777252503 | 17.78° C | 89% | 1006.9 hPa | 0 mm | - | - | - |
| 1777251004 | 17.78° C | 89% | 1006.7 hPa | 0 mm | - | - | - |
| 1777250103 | 17.78° C | 89% | 1006.8 hPa | 0 mm | - | - | - |
| 1777249504 | 17.78° C | 90% | 1006.9 hPa | 0 mm | - | - | - |
| 1777249203 | 17.78° C | 90% | 1006.9 hPa | 0 mm | - | - | - |
| 1777248604 | 17.78° C | 90% | 1007.2 hPa | 0 mm | - | - | - |
| 1777248303 | 17.78° C | 90% | 1007.3 hPa | 0 mm | - | - | - |
| 1777247704 | 18.33° C | 91% | 1007.3 hPa | 0 mm | - | - | - |
| 1777247403 | 18.33° C | 91% | 1007.1 hPa | 0.25 mm | - | - | - |
| 1777246804 | 18.33° C | 92% | 1006.5 hPa | 1.02 mm | - | - | - |
| 1777245904 | 18.33° C | 92% | 1006.5 hPa | 8.13 mm | - | - | - |
| 1777243203 | 18.33° C | 91% | 1007.8 hPa | 15.49 mm | - | - | - |
| 1777242904 | 18.33° C | 91% | 1010 hPa | 13.46 mm | - | - | - |
| 1777242604 | 18.89° C | 91% | 1010.2 hPa | 10.67 mm | - | - | - |
| 1777241704 | 18.89° C | 90% | 1009.5 hPa | 5.33 mm | - | - | - |
| 1777240804 | 18.89° C | 88% | 1008.3 hPa | 2.54 mm | - | - | - |
| 1777239603 | 19.44° C | 86% | 1007.5 hPa | 1.78 mm | - | - | - |
| 1777238704 | 20° C | 84% | 1007.9 hPa | 1.27 mm | - | - | - |
| 1777238404 | 20° C | 82% | 1008.1 hPa | 1.02 mm | - | - | - |
| 1777237203 | 20.56° C | 79% | 1007.8 hPa | 0.25 mm | - | - | - |
| 1777236603 | 21.67° C | 75% | 1008.2 hPa | 0.25 mm | - | - | - |
* Rain latest hour (hover to see other rain measurements)
** Current wind speed in m/s (hover to see current wind gust speed)